SDM601 UUWW-UWGG

Flight info

Callsign SDM601
Flight time N/A
Altitude 33000
Route KOGOM3W KOGOM L94 USTOK USTOK2P
Aircraft A320/M-SDE3FGHIRWY/LB1

Departure

Time N/A
Airport Vnukovo International Airport (UUWW)

Arrival

Time 2026-04-10 08:41
Airport Nizhny Novgorod / Strigino International Airport (UWGG)
Time Latitude Longitude Altitude Speed Heading
2026-04-10 08:19 56.22719 41.20776 32156 ft 422 kts 93°
2026-04-10 08:19 56.22554 41.26048 31900 ft 422 kts 93°
2026-04-10 08:19 56.22387 41.31321 31647 ft 422 kts 94°
2026-04-10 08:19 56.22216 41.36585 31400 ft 422 kts 94°
2026-04-10 08:20 56.22040 41.41843 31152 ft 422 kts 94°
2026-04-10 08:20 56.21857 41.47095 30908 ft 422 kts 94°
2026-04-10 08:20 56.21670 41.52434 30494 ft 421 kts 94°
2026-04-10 08:20 56.21486 41.57721 29302 ft 425 kts 94°
2026-04-10 08:21 56.21305 41.62927 28356 ft 421 kts 95°
2026-04-10 08:21 56.21123 41.68151 27361 ft 419 kts 95°
2026-04-10 08:21 56.20937 41.73362 26529 ft 414 kts 95°
2026-04-10 08:21 56.20755 41.78457 25955 ft 404 kts 95°
2026-04-10 08:22 56.20575 41.83437 25306 ft 396 kts 95°
2026-04-10 08:22 56.20395 41.88342 24675 ft 390 kts 95°
2026-04-10 08:22 56.20214 41.93161 24051 ft 384 kts 96°
2026-04-10 08:22 56.20035 41.97899 23428 ft 378 kts 96°
2026-04-10 08:23 56.19855 42.02566 22807 ft 371 kts 96°
2026-04-10 08:23 56.19678 42.07147 22258 ft 364 kts 96°
2026-04-10 08:23 56.19502 42.11645 21690 ft 359 kts 96°
2026-04-10 08:23 56.19298 42.16080 21113 ft 355 kts 97°
2026-04-10 08:24 56.19063 42.20472 20555 ft 351 kts 98°
2026-04-10 08:24 56.18816 42.24814 20004 ft 348 kts 98°
2026-04-10 08:24 56.18568 42.29121 19487 ft 345 kts 98°
2026-04-10 08:24 56.18323 42.33393 18973 ft 343 kts 98°
2026-04-10 08:25 56.18084 42.37648 18488 ft 340 kts 98°
2026-04-10 08:25 56.17851 42.41807 17966 ft 338 kts 98°
2026-04-10 08:25 56.17620 42.45989 17495 ft 336 kts 98°
2026-04-10 08:25 56.17390 42.50164 17035 ft 334 kts 98°
2026-04-10 08:26 56.16897 42.58996 16073 ft 331 kts 98°
2026-04-10 08:26 56.16673 42.62939 15617 ft 329 kts 98°
2026-04-10 08:26 56.16437 42.67016 15153 ft 328 kts 98°
2026-04-10 08:27 56.16202 42.71075 14664 ft 327 kts 98°
2026-04-10 08:27 56.15967 42.75122 14180 ft 325 kts 98°
2026-04-10 08:27 56.15735 42.79150 13655 ft 324 kts 98°
2026-04-10 08:27 56.15504 42.83165 13130 ft 322 kts 98°
2026-04-10 08:28 56.15269 42.87147 12594 ft 320 kts 98°
2026-04-10 08:28 56.15035 42.91063 12076 ft 319 kts 98°
2026-04-10 08:28 56.14799 42.95015 11521 ft 317 kts 99°
2026-04-10 08:28 56.14563 42.98938 11015 ft 315 kts 99°
2026-04-10 08:29 56.14335 43.02757 10870 ft 301 kts 99°
2026-04-10 08:29 56.14114 43.06409 10742 ft 289 kts 99°
2026-04-10 08:29 56.13902 43.09905 10618 ft 277 kts 99°
2026-04-10 08:30 56.13661 43.13830 10354 ft 268 kts 99°
2026-04-10 08:30 56.13452 43.17125 10100 ft 263 kts 102°
2026-04-10 08:30 56.12967 43.20245 9924 ft 258 kts 115°
2026-04-10 08:30 56.12087 43.23026 9793 ft 257 kts 128°
2026-04-10 08:31 56.10868 43.25349 9652 ft 256 kts 139°
2026-04-10 08:31 56.09511 43.27423 9518 ft 256 kts 139°
2026-04-10 08:31 56.08164 43.29496 9377 ft 256 kts 139°
2026-04-10 08:31 56.06815 43.31578 9214 ft 255 kts 139°
2026-04-10 08:32 56.05491 43.33618 8890 ft 254 kts 139°
2026-04-10 08:32 56.04157 43.35669 8550 ft 252 kts 139°
2026-04-10 08:32 56.02834 43.37703 8197 ft 249 kts 139°
2026-04-10 08:32 56.01527 43.39709 7854 ft 246 kts 139°
2026-04-10 08:33 56.00239 43.41684 7505 ft 242 kts 140°
2026-04-10 08:33 55.99054 43.43786 7176 ft 239 kts 128°
2026-04-10 08:33 55.98264 43.46395 6839 ft 239 kts 112°
2026-04-10 08:33 55.97869 43.49273 6499 ft 238 kts 106°
2026-04-10 08:34 55.97517 43.52145 6151 ft 235 kts 106°
2026-04-10 08:34 55.97171 43.54937 6045 ft 222 kts 107°
2026-04-10 08:34 55.96849 43.57539 6054 ft 211 kts 107°
2026-04-10 08:34 55.96531 43.60085 6060 ft 210 kts 107°
2026-04-10 08:35 55.96277 43.62642 5792 ft 219 kts 97°
2026-04-10 08:35 55.96508 43.65351 5477 ft 223 kts 75°
2026-04-10 08:35 55.97301 43.67741 5283 ft 228 kts 54°
2026-04-10 08:35 55.98575 43.69483 5045 ft 236 kts 31°
2026-04-10 08:36 56.00171 43.70316 4747 ft 242 kts 16°
2026-04-10 08:36 56.01818 43.70896 4413 ft 240 kts 16°
2026-04-10 08:36 56.03459 43.71479 4070 ft 240 kts 17°
2026-04-10 08:36 56.05092 43.72068 3740 ft 239 kts 17°
2026-04-10 08:37 56.06716 43.72657 3426 ft 235 kts 17°
2026-04-10 08:37 56.08291 43.73225 3098 ft 225 kts 18°
2026-04-10 08:37 56.09759 43.73753 2781 ft 205 kts 19°
2026-04-10 08:37 56.11099 43.74238 2509 ft 188 kts 19°
2026-04-10 08:38 56.12335 43.74688 2253 ft 174 kts 18°
2026-04-10 08:38 56.13450 43.75093 2019 ft 154 kts 19°
2026-04-10 08:38 56.14450 43.75458 1819 ft 141 kts 18°
2026-04-10 08:38 56.15386 43.75804 1619 ft 135 kts 18°
2026-04-10 08:39 56.16302 43.76121 1461 ft 133 kts 18°
2026-04-10 08:39 56.17207 43.76450 1308 ft 132 kts 19°
2026-04-10 08:39 56.18110 43.76771 1059 ft 133 kts 17°
2026-04-10 08:39 56.19006 43.77125 812 ft 132 kts 16°
2026-04-10 08:40 56.19912 43.77408 661 ft 133 kts 13°
2026-04-10 08:40 56.20799 43.77752 478 ft 132 kts 17°
2026-04-10 08:40 56.21701 43.78097 297 ft 131 kts 15°
2026-04-10 08:40 56.22480 43.78420 266 ft 93 kts 12°
2026-04-10 08:41 56.22995 43.78604 269 ft 67 kts
2026-04-10 08:41 56.23427 43.78739 266 ft 59 kts 12°
2026-04-10 08:41 56.23810 43.78888 266 ft 53 kts 11°
2026-04-10 08:41 56.24095 43.79014 268 ft 23 kts 51°
2026-04-10 08:42 56.24065 43.79223 266 ft 0 kts 136°